Quillayute, WA
on Thursday, January 10, 2013

Thursday
Previous Day Next Day
Daily Summary
 ActualAverageRecord
Temperature
Mean Temperature °F / °C 41°F / 5°C  
Max Temperature 46°F / 8°C 47°F / 8°C 57°F / 13°C (1986)
Min Temperature 27°F / -3°C 36°F / 2°C 18°F / -7°C (1993)
Degree Days
Heating Degree Days 28 24  
Month to date heating degree days 240  
Since 1 July heating degree days 2718  
Cooling Degree Days 0 0  
Month to date cooling degree days 0  
Year to date cooling degree days 0  
Moisture
Dew Point 32°F / 0°C   
Average Humidity 92    
Maximum Humidity 100    
Minimum Humidity 65    
Precipitation
Precipitation T in / T cm 0.50 in / 12.70 cm 2.74 in / 6.96 cm (2014)
Month to date precipitation 4.77  
Year to date precipitation 4.77  
Wind
Wind Speed 2 mph / 3 km/h   
Max Wind Speed 9 mph / 14 km/h   
Max Gust Speed 12 mph / 19 km/h   
Visibility 4 miles / 6 kilometers   
Events Fog   

Key: T is trace of precipitation, MM is missing value
Source: NWS Daily Summary
Time(PST)TemperatureDew PointHumidity Pressure Visibility Wind DirectionWind SpeedGust SpeedPrecipitationEvents Conditions
12:53 AM 35.1°F / 1.7°C 34.0°F / 1.1°C 96% 29.93 in / 1013.3 hPa 5.0 miles / 8.0 kilometers Calm Calm - 0.00 in / 0.0 cm   Overcast
2:10 AM 33.8°F / 1.0°C 33.8°F / 1.0°C 100% 29.95 in / 1014.1 hPa 6.0 miles / 9.7 kilometers ENE 3.5 mph / 5.6 km/h - N/A   Partly Cloudy
2:53 AM 34.0°F / 1.1°C 33.1°F / 0.6°C 96% 29.97 in / 1014.7 hPa 6.0 miles / 9.7 kilometers East 3.5 mph / 5.6 km/h - N/A   Overcast
3:14 AM 33.8°F / 1.0°C 33.8°F / 1.0°C 100% 29.97 in / 1014.8 hPa 6.0 miles / 9.7 kilometers Calm Calm - N/A   Overcast
3:53 AM 34.0°F / 1.1°C 33.1°F / 0.6°C 96% 29.98 in / 1015.2 hPa 6.0 miles / 9.7 kilometers Calm Calm - N/A   Overcast
4:53 AM 33.1°F / 0.6°C 33.1°F / 0.6°C 100% 29.99 in / 1015.6 hPa 5.0 miles / 8.0 kilometers ENE 3.5 mph / 5.6 km/h - N/A   Overcast
5:53 AM 33.1°F / 0.6°C 32.0°F / 0.0°C 96% 30.01 in / 1016.1 hPa 6.0 miles / 9.7 kilometers Calm Calm - N/A   Overcast
6:53 AM 33.1°F / 0.6°C 32.0°F / 0.0°C 96% 30.04 in / 1017.0 hPa 5.0 miles / 8.0 kilometers Calm Calm - N/A   Overcast
7:20 AM 32.0°F / 0.0°C 30.2°F / -1.0°C 93% 30.04 in / 1017.2 hPa 6.0 miles / 9.7 kilometers Calm Calm - N/A   Scattered Clouds
7:27 AM 32.0°F / 0.0°C 30.2°F / -1.0°C 93% 30.04 in / 1017.2 hPa 6.0 miles / 9.7 kilometers Calm Calm - N/A   Mostly Cloudy
7:53 AM 32.0°F / 0.0°C 30.9°F / -0.6°C 96% 30.06 in / 1017.8 hPa 5.0 miles / 8.0 kilometers Calm Calm - N/A   Overcast
8:53 AM 34.0°F / 1.1°C 33.1°F / 0.6°C 96% 30.08 in / 1018.6 hPa 4.0 miles / 6.4 kilometers Calm Calm - N/A   Mostly Cloudy
9:53 AM 34.0°F / 1.1°C 33.1°F / 0.6°C 96% 30.09 in / 1019.0 hPa 4.0 miles / 6.4 kilometers Calm Calm - N/A   Overcast
10:53 AM 37.0°F / 2.8°C 36.0°F / 2.2°C 96% 30.10 in / 1019.2 hPa 5.0 miles / 8.0 kilometers Calm Calm - N/A   Mostly Cloudy
11:01 AM 37.4°F / 3.0°C 35.6°F / 2.0°C 93% 30.09 in / 1018.8 hPa 5.0 miles / 8.0 kilometers ESE 3.5 mph / 5.6 km/h - N/A   Scattered Clouds
11:53 AM 41.0°F / 5.0°C 37.0°F / 2.8°C 86% 30.09 in / 1018.8 hPa 5.0 miles / 8.0 kilometers Calm Calm - N/A   Mostly Cloudy
12:53 PM 43.0°F / 6.1°C 37.9°F / 3.3°C 82% 30.06 in / 1018.0 hPa 4.0 miles / 6.4 kilometers SE 3.5 mph / 5.6 km/h - N/A   Haze
1:07 PM 44.6°F / 7.0°C 37.4°F / 3.0°C 76% 30.06 in / 1017.8 hPa 5.0 miles / 8.0 kilometers Variable 3.5 mph / 5.6 km/h - N/A   Haze
1:19 PM 44.6°F / 7.0°C 37.4°F / 3.0°C 76% 30.06 in / 1017.8 hPa 5.0 miles / 8.0 kilometers Calm Calm - N/A   Haze
1:35 PM 42.8°F / 6.0°C 37.4°F / 3.0°C 81% 30.06 in / 1017.8 hPa 4.0 miles / 6.4 kilometers Calm Calm - N/A   Haze
1:53 PM 43.0°F / 6.1°C 37.0°F / 2.8°C 80% 30.07 in / 1018.2 hPa 4.0 miles / 6.4 kilometers Calm Calm - N/A   Haze
2:40 PM 44.6°F / 7.0°C 37.4°F / 3.0°C 76% 30.07 in / 1018.2 hPa 5.0 miles / 8.0 kilometers NW 6.9 mph / 11.1 km/h - N/A   Haze
2:53 PM 43.0°F / 6.1°C 36.0°F / 2.2°C 76% 30.08 in / 1018.4 hPa 4.0 miles / 6.4 kilometers West 4.6 mph / 7.4 km/h - N/A   Haze
3:53 PM 43.0°F / 6.1°C 35.1°F / 1.7°C 74% 30.08 in / 1018.5 hPa 4.0 miles / 6.4 kilometers NW 3.5 mph / 5.6 km/h - N/A   Haze
4:53 PM 37.9°F / 3.3°C 35.1°F / 1.7°C 89% 30.09 in / 1018.7 hPa 4.0 miles / 6.4 kilometers North 3.5 mph / 5.6 km/h - N/A   Clear
5:53 PM 35.1°F / 1.7°C 33.1°F / 0.6°C 92% 30.09 in / 1019.0 hPa 6.0 miles / 9.7 kilometers North 5.8 mph / 9.3 km/h - N/A   Clear
6:53 PM 33.1°F / 0.6°C 32.0°F / 0.0°C 96% 30.10 in / 1019.3 hPa 5.0 miles / 8.0 kilometers NNE 4.6 mph / 7.4 km/h - N/A   Clear
7:53 PM 30.9°F / -0.6°C 30.0°F / -1.1°C 96% 30.11 in / 1019.5 hPa 5.0 miles / 8.0 kilometers East 3.5 mph / 5.6 km/h - N/A   Clear
8:45 PM 30.2°F / -1.0°C 30.2°F / -1.0°C 100% 30.11 in / 1019.5 hPa 2.5 miles / 4.0 kilometers Calm Calm - N/A   Partly Cloudy
8:48 PM 30.2°F / -1.0°C 30.2°F / -1.0°C 100% 30.11 in / 1019.5 hPa 1.0 miles / 1.6 kilometers Calm Calm - N/A   Mist
8:53 PM 30.0°F / -1.1°C 30.0°F / -1.1°C 100% 30.12 in / 1019.8 hPa 0.2 miles / 0.4 kilometers Calm Calm - N/A Fog Light Freezing Fog
9:53 PM 28.0°F / -2.2°C 28.0°F / -2.2°C 100% 30.13 in / 1020.2 hPa 0.2 miles / 0.4 kilometers Calm Calm - N/A Fog Light Freezing Fog
10:12 PM 28.4°F / -2.0°C 26.6°F / -3.0°C 93% 30.12 in / 1019.9 hPa 1.0 miles / 1.6 kilometers ENE 3.5 mph / 5.6 km/h - N/A   Mist
10:14 PM 28.4°F / -2.0°C 28.4°F / -2.0°C 100% 30.12 in / 1019.9 hPa 1.8 miles / 2.8 kilometers ENE 3.5 mph / 5.6 km/h - N/A   Scattered Clouds
10:16 PM 28.4°F / -2.0°C 28.4°F / -2.0°C 100% 30.12 in / 1019.9 hPa 3.0 miles / 4.8 kilometers Calm Calm - N/A   Scattered Clouds
10:22 PM 28.4°F / -2.0°C 28.4°F / -2.0°C 100% 30.12 in / 1019.9 hPa 1.5 miles / 2.4 kilometers Calm Calm - N/A   Partly Cloudy
10:25 PM 28.4°F / -2.0°C 28.4°F / -2.0°C 100% 30.12 in / 1019.9 hPa 0.8 miles / 1.2 kilometers ESE 3.5 mph / 5.6 km/h - N/A   Mist
10:49 PM 28.4°F / -2.0°C 28.4°F / -2.0°C 100% 30.12 in / 1019.9 hPa 1.5 miles / 2.4 kilometers East 3.5 mph / 5.6 km/h - N/A   Scattered Clouds
10:51 PM 28.4°F / -2.0°C 28.4°F / -2.0°C 100% 30.13 in / 1020.2 hPa 3.0 miles / 4.8 kilometers East 3.5 mph / 5.6 km/h - N/A   Scattered Clouds
10:53 PM 28.9°F / -1.7°C 28.0°F / -2.2°C 96% 30.14 in / 1020.4 hPa 4.0 miles / 6.4 kilometers ENE 4.6 mph / 7.4 km/h - N/A   Scattered Clouds
11:53 PM 28.0°F / -2.2°C 26.1°F / -3.3°C 92% 30.14 in / 1020.5 hPa 6.0 miles / 9.7 kilometers Calm Calm - N/A   Clear
Moon Phase
Jan. 10 Jan. 11 Jan. 18 Jan. 26 Feb. 03
Sunrise:08:05 AM (PST) Moon Rise:06:50 AM (PST)1/10
Sunset:04:46 PM (PST) Moon Set:04:02 PM (PST)1/10

Copyright © 2014 The Weather Underground, Inc.